Location: Caltech
(34.1382°N, 118.1253°W)
Time: 16:21:00
(UTC-07:00)

AO-7 - Visible Passes

Search period start: 20 October 2017 00:00
Search period end: 30 October 2017 00:00
Orbit: 1439 x 1459 km, 101.6° (Epoch: 20 October)

Date Brightness Start Highest point End Pass type
(mag) Time Alt. Az. Time Alt. Az. Time Alt. Az.
20 Oct ? 04:03:40 10° NNE 04:11:47 55° ESE 04:19:51 10° S visible
20 Oct ? 05:57:11 10° N 06:04:03 30° WNW 06:10:57 10° WSW visible
21 Oct ? 03:05:34 10° NE 03:11:24 21° E 03:17:14 10° SE visible
21 Oct ? 04:56:26 10° NNE 05:04:41 71° WNW 05:12:56 10° SSW visible
22 Oct ? 03:56:47 10° NNE 04:04:47 49° ESE 04:12:44 10° S visible
22 Oct ? 05:50:02 10° N 05:57:10 33° WNW 06:04:19 10° WSW visible
23 Oct ? 02:59:02 10° NE 03:04:21 18° E 03:09:38 10° SE visible
23 Oct ? 04:49:25 10° NNE 04:57:44 79° WNW 05:06:03 10° SSW visible
24 Oct ? 03:49:55 10° NNE 03:57:46 44° E 04:05:35 10° S visible
24 Oct ? 05:42:55 10° N 05:50:17 37° WNW 05:57:40 10° SW visible
25 Oct ? 02:52:37 10° ENE 02:57:16 16° E 03:01:54 10° SE visible
25 Oct ? 04:42:26 10° NNE 04:50:47 86° WNW 04:59:07 10° SSW visible
25 Oct ? 06:37:36 10° NNW 06:42:21 17° NW 06:47:07 10° W visible
26 Oct ? 03:43:05 10° NNE 03:50:45 40° E 03:58:23 10° SSE visible
26 Oct ? 05:35:49 10° N 05:43:23 41° WNW 05:50:57 10° SW visible
27 Oct ? 02:46:23 10° ENE 02:50:12 14° E 02:53:59 10° ESE visible
27 Oct ? 04:35:27 10° NNE 04:43:49 87° ESE 04:52:10 10° SSW visible
27 Oct ? 06:30:16 10° NNW 06:35:31 19° NW 06:40:46 10° W visible
28 Oct ? 03:36:16 10° NE 03:43:43 36° E 03:51:09 10° SSE visible
28 Oct ? 05:28:43 10° N 05:36:28 45° WNW 05:44:13 10° SW visible
29 Oct ? 02:40:30 10° ENE 02:43:06 12° E 02:45:42 10° ESE visible
29 Oct ? 04:28:29 10° NNE 04:36:50 79° ESE 04:45:10 10° SSW visible
29 Oct ? 06:22:59 10° NNW 06:28:40 21° WNW 06:34:22 10° W visible
